Regional Weather Roundup
Issued by NWS New Orleans/Baton Rouge, LA

Home | Current Version | Previous Version | Graphics & Text | Print | Product List | Glossary On
Versions: 1 2 3 4 5 6 7 8 9 10 11 12 13 14 15 16 17 18 19 20 21 22 23 24 25 26 27 28 29 30 31 32 33 34 35 36 37 38 39 40 41 42 43 44 45 46 47 48 49 50
108
ASUS44 KLIX 260110
RWRLIX
NEW ORLEANS REGIONAL WEATHER ROUNDUP
NATIONAL WEATHER SERVICE NEW ORLEANS LA
800 PM CDT FRI JUL 25 2014

NOTE: "FAIR" INDICATES FEW OR NO CLOUDS BELOW 12,000 FEET WITH NO
      SIGNIFICANT WEATHER AND/OR OBSTRUCTIONS TO VISIBILITY.
      SKY/WX - SKY CONDITION AND SIGNIFICANT WEATHER.
      TMP - AIR TEMPERATURE.     DP    - DEWPOINT TEMPERATURE.
      RH  - RELATIVE HUMIDITY.   PRES  - PRESSURE.
      HI  - HEAT INDEX.          WCI   - WIND CHILL INDEX.

*  THESE STATIONS ARE NOT NWS OR FAA STATIONS AND ARE NOT UNDER
   NWS QUALITY CONTROL.

LAZ038-040-048-061>063-065>067-069-260200-
SOUTHEAST LOUISIANA

CITY           SKY/WX    TMP DP  RH WIND       PRES   REMARKS
N.O. AUDUBON     N/A     84  76  76 MISG        N/A
N.O. INTL ARPT CLOUDY    82  76  81 S7        29.99R
N.O. LAKEFRONT CLOUDY    84  74  71 SW12      30.00R
N.O. DOWNTOWN*   N/A     84  72  65 SW3       30.00R
SLIDELL        MOCLDY    84  76  76 SW3       29.98R
BATON ROUGE    MOCLDY    85  73  67 SW7       29.97S
BOOTHVILLE     PTCLDY    84  76  76 SW9       30.01R
BELLE CHASSE   CLOUDY    80  73  79 SW3       29.99R
BOGALUSA*      MOCLDY    83  74  74 NE6       29.99S
GALLIANO*      NOT AVBL
NEW ROADS*       N/A     87  76  71 S5        29.97S HX  97
GONZALES*      TSTM      78  78 100 S8        29.99R
HAMMOND*       MOCLDY    84  73  70 S5        30.00R
HOUMA*         MOCLDY    83  73  70 CALM      29.99R
PORT FOURCHON* CLEAR     84  75  74 SW10      30.02R

$$

MSZ070-080>082-260200-
SOUTHERN MISSISSIPPI

CITY           SKY/WX    TMP DP  RH WIND       PRES   REMARKS
MCCOMB         PTCLDY    86  73  65 N3        29.98F
GULFPORT       MOCLDY    83  76  79 CALM      29.97S
BILOXI         MOCLDY    81  78  92 SW5       29.98S
PASCAGOULA     MOCLDY    81  77  88 W5        30.00R
STENNIS ARPT*  CLEAR    N/A N/A N/A CALM      29.99R

$$

COASTAL OBSERVATIONS
LAKE AND NEARSHORE STATIONS

STATION/POSITION TIME  TEMP    WIND        PRES    WAVE
                       AIR SEA DIR/SP/G            HT/PER
                 (UTC) (F)     (DEG/KT/KT) (MB)    (FT/S)
PASCAGOULA       0100   84     250/  8/ 12 1014.9
WAVELAND YACHT   0100   85     240/  3/  3 1014.8
GRAND ISLE       0100   84 87  250/  9/ 11 1016.6
SOUTHWEST PASS   0100   84 85  240/ 14/ 16 1016.4
NEW CANAL        0100   84 85  200/  5/  7 1016.0
SHELL BEACH      0100   82 82  220/  5/  6 1015.5

OFFSHORE STATIONS

STATION/POSITION TIME  TEMP    WIND        PRES    WAVE
                       AIR SEA DIR/SP/G            HT/PER
                 (UTC) (F)     (DEG/KT/KT) (MB)    (FT/S)
64 S DAUPHIN ISL 0024   85 86  250/ 14/ 16 1016.2

$$




USA.gov is the U.S. government's official web portal to all federal, state and local government web resources and services.